Location: Peterborough
(44.3091°N, 78.3197°W)
Time: 16:19:48
(UTC-04:00)

Transit 2A - Pass Details

Date: 27 March 2023
Orbit: 591 x 964 km, 66.7° (Epoch: 04 June)

Event Time Altitude Azimuth Distance (km) Brightness Sun altitude
Rises 11:35:26 0° 330° (NNW) 3,586 9.0 42.5°
Reaches altitude 10° 11:39:51 10° 359° (N) 2,687 8.5 43.0°
Maximum altitude 11:42:23 12° 23° (NNE) 2,526 8.6 43.2°
Drops below altitude 10° 11:44:56 10° 47° (NE) 2,707 8.9 43.5°
Sets 11:49:23 0° 75° (ENE) 3,643 9.7 43.9°
